Location: Gudimetta
(16.7348°N, 80.1545°E)
Time: 15:17:00
(UTC+00:00)

Daily predictions for brighter satellites

Satellite Brightness Start Highest point End
(mag) Time Altitude Azimuth Time Altitude Azimuth Time Altitude Azimuth
CZ-2D R/B 3.9 12:20:50 10° SE 12:24:20 34° ENE 12:27:48 10° NNE
Cosmos 2360 4.2 12:24:03 10° N 12:29:41 63° ENE 12:35:19 10° SSE
SKYMED 2 3.5 12:26:03 10° NNE 12:30:23 78° E 12:34:43 10° S
Cosmos 2084 3.5 12:28:20 10° NNW 12:32:50 74° ENE 12:37:28 10° SSE
Cosmos 1500 3.1 12:30:41 10° N 12:34:23 84° E 12:38:05 10° S
Atlas Centaur 2 3.8 12:32:05 10° WSW 12:34:29 17° SSW 12:36:49 10° S
Sich 1 3.2 12:31:26 10° N 12:35:45 79° W 12:40:05 10° S
Meteor 1-10 Rocket 4.3 12:30:07 10° S 12:35:54 66° E 12:41:36 10° NNE
GPS 2-15 Rocket1 3.2 12:38:15 10° WNW 12:42:54 63° N 12:47:07 12° E
Cosmos 858 Rocket 4.5 12:38:12 10° NNW 12:43:28 83° ENE 12:48:41 10° SSE
H-2A R/B 3.7 12:41:17 11° ENE 12:43:53 16° E 12:46:41 10° SE
Cosmos 1515 Rocket 3.6 12:40:32 10° S 12:44:55 63° E 12:49:19 10° NNE
Meteor 2-16 Rocket 4.5 12:39:49 10° N 12:45:52 61° E 12:51:54 10° SSE
Centaur AC-69 2.4 12:42:35 10° W 12:47:08 77° S 12:49:16 12° ESE
Meteor 2-15 Rocket 4.4 12:41:59 10° S 12:48:02 65° E 12:54:05 10° NNE
Aureole 3 Rocket 3.4 12:47:22 10° SSE 12:50:24 32° E 12:54:08 10° NNE
Genesis I 3.2 12:50:07 10° SSW 12:53:50 60° ESE 12:57:09 13° NE
CZ-4C R/B 3.8 12:49:56 10° N 12:56:53 30° ENE 13:04:14 10° ESE
PSLV R/B 4.4 12:55:31 10° S 12:59:06 55° W 13:02:42 10° NNW
CZ-4 R/B 3.6 12:56:50 10° ESE 12:56:50 10° ESE 12:56:50 10° ESE
Cosmos 1697 Rocket 3.6 12:55:27 10° NNW 13:00:53 53° WSW 13:06:19 10° S
Cosmos 1666 2.8 12:59:48 10° N 13:03:29 75° W 13:07:11 10° S
Cosmos 1980 Rocket 2.1 13:00:37 10° NNW 13:06:13 72° ENE 13:11:46 10° SSE
USA 276 1.9 13:05:29 10° NNW 13:08:34 66° NE 13:10:42 18° SE
YAOGAN 1 3.8 13:08:23 10° SE 13:10:44 22° E 13:10:44 22° E
Cosmos 2369 4.0 13:06:56 10° NNW 13:12:37 71° WSW 13:18:15 10° S
Cosmos 2266 Rocket 4.2 13:07:06 10° N 13:13:19 51° E 13:19:29 10° SSE
SL-27 R/B 3.3 13:10:17 10° SSE 13:13:12 30° ESE 13:13:12 30° ESE
ARGOS 3.1 13:09:43 10° SSE 13:15:06 69° ENE 13:20:28 10° N
CZ-4 R/B 4.3 13:11:37 10° SSE 13:15:42 67° ENE 13:19:46 10° N
Cosmos 1515 3.7 13:13:55 10° S 13:17:34 52° E 13:18:56 33° NE
DMSP B5D2-2 4.0 13:14:05 10° NNE 13:19:19 90° SE 13:24:34 10° SSW
Cosmos 783 Rocket 4.4 13:18:43 10° S 13:23:57 70° ESE 13:27:18 22° NNE
Cosmos 1633 Rocket 4.1 13:20:08 10° NNW 13:24:19 46° W 13:28:31 10° SSW
Cosmos 1356 Rocket 3.8 13:26:00 41° E 13:26:00 41° E 13:29:54 10° SSE
USA 234 3.8 13:27:32 30° ENE 13:28:53 33° NE 13:34:34 10° NNW
Meteosat 1 Rocket2 3.4 13:25:46 10° W 13:29:43 40° NNW 13:30:23 36° N
H-2A R/B 3.5 13:25:44 10° SSW 13:30:38 39° W 13:35:25 10° NNW
Okean O Rocket 1.9 13:29:10 10° S 13:33:33 67° WSW 13:37:58 10° NNW
Delta 2 Rocket 4.0 13:29:17 10° WSW 13:33:36 45° NNW 13:34:33 38° N
Cosmos 2278 3.7 13:30:17 10° NNW 13:35:58 85° WSW 13:41:37 10° SSE
Cosmos 773 Rocket 3.9 13:32:16 10° SSW 13:37:33 87° ESE 13:40:13 30° NNE
GPS 2-12 Rocket1 2.8 13:40:24 10° WSW 13:44:53 87° S 13:45:03 82° ESE
CZ-4B R/B 4.4 13:41:49 10° S 13:46:59 42° WSW 13:52:04 10° NNW
Cosmos 1933 Rocket 3.5 13:48:07 43° NNW 13:49:29 80° W 13:53:48 10° S
Spot 2 4.3 13:47:58 10° SSE 13:52:59 82° ENE 13:55:43 28° N
Cosmos 1544 4.4 13:53:30 26° NW 13:54:58 38° W 13:58:21 10° SSW
Aurora 2 Rocket 3.3 13:50:02 10° WNW 13:55:26 87° SSW 13:57:22 51° ESE
Okean 1 4.2 13:52:49 10° S 13:55:37 43° SSW 13:55:37 43° SSW
SWIFT 3.3 13:59:44 10° W 14:03:09 44° SW 14:03:09 44° SW
DNEPR-1 R/B 4.1 14:03:44 10° SSW 14:08:45 64° W 14:08:45 64° W
Cosmos 1553 Rocket 3.9 14:12:14 10° S 14:18:32 82° W 14:18:38 81° WNW
H-2A R/B 4.1 14:18:22 22° NW 14:19:40 25° WNW 14:23:17 10° SW
ATLAS 5 CENTAUR R/B 2.3 14:12:40 10° W 14:18:36 44° W 14:18:36 44° W
BREEZE M DEB (TANK) 4.0 14:13:00 10° NW 14:18:21 39° NW 14:18:21 39° NW
CZ-4 R/B 3.9 14:30:41 10° SSW 14:32:49 20° WSW 14:32:49 20° WSW
ATLAS 3B CENTAUR R/B 4.4 14:26:13 10° WNW 14:45:16 56° N 14:46:49 55° NNE
CZ-4C R/B 4.0 14:37:38 10° NW 14:45:36 49° WSW 14:53:54 10° S
Cosmos 2082 Rocket 3.8 22:17:14 29° SE 22:17:14 29° SE 22:19:58 10° SSE
Centaur D-1A AC-31 3.0 22:40:40 25° NE 22:40:40 25° NE 22:44:20 10° E
SJ 16-02 4.2 22:47:18 10° SE 22:49:59 16° E 22:52:40 10° ENE
GPS 2-17 Rocket1 4.0 22:57:13 39° SSE 22:57:13 39° SSE 23:01:12 10° E
GPS 2-18 Rocket1 4.0 23:04:54 47° ESE 23:04:54 47° ESE 23:07:49 10° ESE
FUSE 4.0 23:07:55 59° N 23:07:55 59° N 23:13:04 10° ENE
ASTRO E2 2.8 23:14:26 71° ESE 23:14:26 71° ESE 23:18:12 10° ENE
Cosmos 1354 Rocket 3.8 23:09:15 10° SSW 23:14:28 78° WNW 23:19:45 10° N
OAO 3 Rocket 3.9 23:14:00 41° N 23:14:51 45° NNE 23:19:35 10° ESE
Centaur AC-72 3.2 23:13:09 29° WSW 23:16:14 69° SSE 23:27:11 10° E
SJ-12 4.4 23:13:46 10° NNE 23:17:49 59° E 23:21:52 10° S
Cosmos 1933 3.5 23:21:59 55° SW 23:21:59 55° SW 23:25:21 10° S
Cosmos 1812 4.5 23:18:15 10° NNE 23:21:41 32° E 23:25:07 10° SSE
YAOGAN 6 2.4 23:24:56 32° NNE 23:26:29 89° ESE 23:30:03 10° S
Cosmos 1814 Rocket 4.2 23:28:13 43° WNW 23:29:00 47° W 23:33:56 10° S
Meteor 1-26 Rocket 4.1 23:25:17 11° N 23:30:49 83° W 23:36:22 10° S
Cosmos 1570 Rocket 4.1 23:29:08 38° NW 23:30:53 55° WSW 23:36:02 10° S
Delta 168 3.9 23:30:07 39° WNW 23:31:48 54° N 23:39:07 10° ENE
Cosmos 1151 Rocket 4.1 23:30:38 10° N 23:34:50 46° E 23:38:59 10° SSE
Okean 3 Rocket 3.6 23:33:26 10° SSW 23:37:53 60° W 23:42:21 10° N
Gbstr 26 Del rocket 3.3 23:36:09 28° NNW 23:38:09 61° NE 23:42:50 10° SE
Cosmos 1766 Rocket 3.7 23:34:06 10° SSW 23:38:17 48° W 23:41:53 13° NNW
ARIANE DEB (SYLDA) 4.5 23:30:16 15° WSW 23:40:19 35° SSW 23:44:38 10° SE
ATLAS 3B R/B 2.5 23:39:49 10° SW 23:46:06 57° WNW 23:52:30 10° NNE
MOS 1-B Rocket 4.4 23:40:43 10° SSE 23:47:38 71° ENE 23:53:36 10° N
SL-4 R/B 2.5 23:48:36 28° NNW 23:48:36 28° NNW 23:51:10 10° NNE
OAO 2 Rocket 4.2 23:46:55 26° WNW 23:48:35 32° NNW 23:53:12 10° NE
ADEOS 4.0 23:45:19 10° NNE 23:50:30 66° ESE 23:55:39 10° S
H-2A R/B 3.1 23:48:45 10° N 23:52:17 39° WNW 23:55:51 10° SSW
Hubble Space Telescope 0.8 23:50:54 28° WNW 23:52:56 68° SSW 23:57:00 10° ESE
